Flag for Germany Weather past 2 weeks in Tönisvorst, North Rhine-Westphalia, Germany

Now
81 °F

Passing clouds.


Feels Like: 82 °F
Forecast: 66 / 82 °F
Wind: 10 mph from North

Location: Monchengladbach Airport

Current Time: Jul 22, 2014 at 5:50:13 PM

Latest Report: Jul 22, 2014 at 5:20 PM


Visibility: N/A

Pressure: 30.04 "Hg

Humidity: 58%

Dew point: 64 °F

Location of TönisvorstLocation

Historic Weather in Tönisvorst — Graph

°F

Tönisvorst temperature yesterday

Maximum temperature yesterday: 70 °F (at 12:20 PM)
Minimum temperature yesterday: 64 °F (at 9:50 AM)
Average temperature yesterday: 68 °F

Past Weeks' High & Low Weather Summary

 TemperatureHumidityPressure
High91 °F (Jul 19, 4:50 PM)100% (Jul 8, 7:50 AM)30.18 "Hg (Jul 8, 7:50 AM)
Low55 °F (Jul 9, 7:50 AM)29% (Jul 19, 12:50 PM)29.65 "Hg (Jul 9, 4:50 PM)
Average71 °F78%29.93 "Hg
* Reported Jul 7 4:20 PM — Jul 22 4:20 PM, Tönisvorst, Weather by CustomWeather, © 2014

Note: Actual official high and low records may vary slightly from our data, if they occured in-between our weather recording intervals... More about our weather records

Advertising

Tönisvorst weather history for previous 24 hours

 ConditionsComfort  
Time TempWeatherWind HumidityBarometerVisibility
4:20 PM
Jul 22
79 °FPassing clouds.8 mph61%30.04 "HgN/A
3:50 PM79 °FPassing clouds.7 mph61%30.04 "HgN/A
3:20 PM79 °FPassing clouds.8 mph61%30.04 "HgN/A
2:50 PM77 °FClear.9 mph61%30.04 "Hg10 mi
2:20 PM77 °FClear.8 mph61%30.04 "Hg10 mi
1:50 PM75 °FPassing clouds.9 mph65%30.04 "HgN/A
1:20 PM77 °FPassing clouds.9 mph65%30.04 "HgN/A
12:50 PM73 °FPassing clouds.8 mph69%30.04 "HgN/A
12:20 PM73 °FPassing clouds.9 mph69%30.04 "HgN/A
11:50 AM73 °FPassing clouds.8 mph74%30.04 "HgN/A
11:20 AM73 °FPassing clouds.7 mph69%30.04 "HgN/A
10:50 AM72 °FSunny.6 mph73%30.04 "Hg10 mi
10:20 AM70 °FScattered clouds.8 mph83%30.04 "Hg5 mi
9:50 AM70 °FPassing clouds.7 mph88%30.04 "Hg4 mi
9:20 AM70 °FFog.8 mph88%30.01 "Hg2 mi
8:50 AM68 °FFog.6 mph94%30.01 "Hg2 mi
8:20 AM68 °FFog.7 mph94%30.01 "Hg1 mi
7:50 AM68 °FFog.7 mph94%30.01 "Hg1 mi
7:50 PM
Jul 21
68 °FPassing clouds.10 mph94%29.95 "HgN/A
7:20 PM68 °FPassing clouds.9 mph94%29.95 "Hg5 mi
6:50 PM68 °FPassing clouds.9 mph94%29.95 "Hg5 mi
6:20 PM68 °FPassing clouds.8 mph94%29.92 "Hg5 mi
5:50 PM68 °FPassing clouds.7 mph100%29.92 "Hg6 mi
5:20 PM68 °FPassing clouds.8 mph94%29.92 "Hg5 mi
Weather by CustomWeather, © 2014

See weather overviewHow to use our weather pages